Flag for Germany Weather past 2 weeks in Würzburg, Bavaria, Germany

Now
26 °F

Light snow. Overcast.


Feels Like: 19 °F
Forecast: 11 / 29 °F
Wind: 7 mph from East

Location: Wuerzburg

Current Time: Dec 27, 2014 at 11:24:13 PM

Latest Report: Dec 27, 2014 at 11:00 PM


Visibility: 3 mi

Pressure: 29.61 "Hg

Humidity: 100%

Dew point: 26 °F

Location of WürzburgLocation

Historic Weather in Würzburg — Graph

°F

Würzburg temperature yesterday

Maximum temperature yesterday: 38 °F (at 1:00 PM)
Minimum temperature yesterday: 29 °F (at 10:00 PM)
Average temperature yesterday: 34 °F

Past Weeks' High & Low Weather Summary

 TemperatureHumidityPressure
High55 °F (Dec 18, 10:00 PM)100% (Dec 14, 7:00 AM)30.50 "Hg (Dec 14, 7:00 AM)
Low26 °F (Dec 27, 9:00 PM)56% (Dec 15, 2:00 PM)29.50 "Hg (Dec 27, 5:00 PM)
Average42 °F88%30.08 "Hg
* Reported Dec 12 10:00 PM — Dec 27 10:00 PM, Würzburg, Weather by CustomWeather, © 2014

Note: Actual official high and low records may vary slightly from our data, if they occured in-between our weather recording intervals... More about our weather records

Advertising

Würzburg weather history for previous 24 hours

 ConditionsComfort  
Time TempWeatherWind HumidityBarometerVisibility
10:00 PM
Dec 27
26 °FLight snow. Ice fog.8 mph100%29.59 "Hg1 mi
9:00 PM26 °FSnow. Low clouds.9 mph100%29.56 "Hg2 mi
8:00 PM27 °FSnow. Low clouds.7 mph100%29.54 "Hg2 mi
7:00 PM27 °FLight snow. Low clouds.7 mph99%29.53 "Hg3 mi
6:00 PM27 °FLight snow. Low clouds.7 mph100%29.50 "Hg3 mi
5:00 PM28 °FLight snow. Low clouds.9 mph100%29.50 "Hg2 mi
4:00 PM28 °FSnow. Low clouds.9 mph100%29.53 "Hg1 mi
3:00 PM29 °FSnow. Low clouds.8 mph100%29.54 "Hg1 mi
2:00 PM29 °FSnow. Low clouds.9 mph100%29.55 "Hg1 mi
1:00 PM30 °FSnow. Low clouds.9 mph100%29.57 "Hg1 mi
12:00 PM30 °FSnow. Low clouds.9 mph100%29.61 "Hg1 mi
11:00 AM31 °FSnow. Low clouds.9 mph100%29.65 "Hg1 mi
10:00 AM31 °FLight snow. Overcast.10 mph95%29.68 "Hg3 mi
9:00 AM32 °FOvercast.9 mph87%29.74 "Hg11 mi
8:00 AM32 °FOvercast.9 mph90%29.79 "Hg7 mi
7:00 AM31 °FOvercast.9 mph93%29.85 "Hg6 mi
6:00 AM31 °FLow clouds.6 mph96%29.91 "Hg6 mi
5:00 AM31 °FPassing clouds.6 mph97%29.98 "Hg5 mi
4:00 AM30 °FFog.5 mph100%30.05 "Hg3 mi
3:00 AM30 °FFog.5 mph100%30.11 "Hg2 mi
2:00 AM31 °FFog.5 mph100%30.16 "Hg2 mi
1:00 AM31 °FFog.3 mph100%30.19 "Hg2 mi
12:00 AM30 °FFog.3 mph100%30.24 "Hg2 mi
11:00 PM
Dec 26
29 °FFog.3 mph100%30.27 "Hg3 mi
Weather by CustomWeather, © 2014

See weather overviewHow to use our weather pages